�������l�o���
Date,Time,MP-1(��Sv/h),MP-2(��Sv/h),MP-3(��Sv/h),MP-4(��Sv/h),MP-5(��Sv/h),MP-6(��Sv/h),MP-7(��Sv/h),MP-8(��Sv/h),����,����(m/s),���J
2021/04/25,00:00,0.646,0.959,0.601,1.179,0.837,0.376,0.662,0.617,��,6.1,��
2021/04/25,00:10,0.646,0.961,0.600,1.180,0.839,0.377,0.660,0.617,��,6.1,��
2021/04/25,00:20,0.644,0.961,0.599,1.183,0.838,0.377,0.662,0.616,��,6.1,��
2021/04/25,00:30,0.646,0.960,0.600,1.178,0.836,0.377,0.662,0.616,��,6.9,��
2021/04/25,00:40,0.644,0.963,0.600,1.181,0.837,0.378,0.663,0.617,��,6.3,��
2021/04/25,00:50,0.646,0.959,0.601,1.181,0.839,0.378,0.662,0.617,��,6.1,��
2021/04/25,01:00,0.646,0.961,0.600,1.178,0.837,0.378,0.661,0.616,��,5.8,��
2021/04/25,01:10,0.645,0.960,0.600,1.180,0.838,0.378,0.662,0.617,��,6.0,��
2021/04/25,01:20,0.646,0.960,0.599,1.180,0.837,0.376,0.662,0.619,��쐼,6.3,��
2021/04/25,01:30,0.646,0.959,0.597,1.176,0.835,0.378,0.662,0.616,��쐼,5.7,��
2021/04/25,01:40,0.645,0.960,0.600,1.177,0.837,0.379,0.662,0.619,��,5.9,��
2021/04/25,01:50,0.646,0.960,0.601,1.179,0.838,0.376,0.662,0.617,��,6.1,��
2021/04/25,02:00,0.645,0.959,0.599,1.179,0.839,0.379,0.660,0.617,��쐼,6.4,��
2021/04/25,02:10,0.645,0.960,0.599,1.179,0.838,0.377,0.660,0.618,��,6.4,��
2021/04/25,02:20,0.646,0.961,0.599,1.178,0.836,0.378,0.661,0.617,��,6.3,��
2021/04/25,02:30,0.644,0.960,0.600,1.178,0.838,0.377,0.664,0.618,��,6.5,��
2021/04/25,02:40,0.645,0.960,0.601,1.178,0.838,0.378,0.661,0.619,��,5.9,��
2021/04/25,02:50,0.646,0.957,0.600,1.178,0.836,0.377,0.662,0.617,��,5.6,��
2021/04/25,03:00,0.646,0.961,0.599,1.179,0.837,0.378,0.662,0.618,��,4.9,��
2021/04/25,03:10,0.645,0.959,0.598,1.179,0.836,0.378,0.662,0.617,��,5.4,��
2021/04/25,03:20,0.645,0.960,0.599,1.178,0.837,0.377,0.663,0.619,��쓌,5.0,��
2021/04/25,03:30,0.646,0.960,0.599,1.180,0.837,0.377,0.663,0.617,��,4.1,��
2021/04/25,03:40,0.644,0.960,0.598,1.179,0.837,0.377,0.662,0.617,��,3.3,��
2021/04/25,03:50,0.646,0.960,0.599,1.178,0.838,0.378,0.664,0.616,��,2.3,��
2021/04/25,04:00,0.645,0.960,0.599,1.179,0.837,0.378,0.662,0.617,��쐼,2.2,��
2021/04/25,04:10,0.645,0.962,0.601,1.178,0.836,0.377,0.662,0.617,�쐼,3.3,��
2021/04/25,04:20,0.645,0.959,0.600,1.178,0.838,0.377,0.662,0.618,�쐼,3.4,��
2021/04/25,04:30,0.646,0.960,0.600,1.180,0.837,0.377,0.660,0.617,�쐼,2.5,��
2021/04/25,04:40,0.645,0.960,0.598,1.179,0.837,0.378,0.661,0.616,���쐼,2.0,��
2021/04/25,04:50,0.644,0.962,0.599,1.181,0.837,0.376,0.661,0.618,��,2.0,��
2021/04/25,05:00,0.645,0.961,0.598,1.180,0.836,0.378,0.662,0.619,��,3.2,��
2021/04/25,05:10,0.645,0.959,0.600,1.182,0.838,0.378,0.659,0.617,�쐼,1.5,��
2021/04/25,05:20,0.646,0.960,0.600,1.177,0.837,0.377,0.662,0.618,��,0.6,��
2021/04/25,05:30,0.645,0.959,0.599,1.180,0.836,0.377,0.661,0.619,��,0.9,��
2021/04/25,05:40,0.646,0.960,0.601,1.180,0.835,0.377,0.660,0.618,�k�k��,1.4,��
2021/04/25,05:50,0.645,0.961,0.598,1.180,0.838,0.378,0.662,0.618,�k�k��,1.2,��
2021/04/25,06:00,0.645,0.960,0.601,1.179,0.838,0.377,0.660,0.617,�k�k��,0.6,��
2021/04/25,06:10,0.645,0.960,0.598,1.181,0.837,0.378,0.662,0.619,-,CALM,��
2021/04/25,06:20,0.646,0.959,0.600,1.181,0.838,0.377,0.661,0.619,��,1.2,��
2021/04/25,06:30,0.646,0.958,0.600,1.178,0.836,0.377,0.661,0.617,��,1.4,��
2021/04/25,06:40,0.646,0.961,0.599,1.181,0.838,0.378,0.663,0.617,��쐼,1.7,��
2021/04/25,06:50,0.645,0.961,0.599,1.181,0.837,0.377,0.660,0.618,��,2.5,��
2021/04/25,07:00,0.646,0.959,0.601,1.180,0.836,0.377,0.662,0.616,��,2.0,��
2021/04/25,07:10,0.646,0.958,0.601,1.180,0.837,0.378,0.660,0.617,��,3.1,��
2021/04/25,07:20,0.646,0.959,0.601,1.180,0.839,0.378,0.661,0.618,��,3.5,��
2021/04/25,07:30,0.645,0.960,0.601,1.179,0.838,0.377,0.662,0.618,��쐼,3.0,��
2021/04/25,07:40,0.647,0.959,0.599,1.179,0.837,0.378,0.661,0.619,��쐼,1.4,��
2021/04/25,07:50,0.646,0.960,0.601,1.180,0.837,0.378,0.662,0.618,��쐼,1.1,��
2021/04/25,08:00,0.648,0.961,0.601,1.180,0.837,0.377,0.660,0.618,��쐼,1.7,��
2021/04/25,08:10,0.646,0.963,0.601,1.181,0.837,0.379,0.662,0.619,�쐼,1.1,��
2021/04/25,08:20,0.648,0.962,0.602,1.180,0.837,0.378,0.659,0.618,�쐼,1.4,��
2021/04/25,08:30,0.645,0.960,0.601,1.182,0.840,0.376,0.662,0.616,���쐼,1.8,��
2021/04/25,08:40,0.650,0.961,0.600,1.179,0.840,0.377,0.660,0.617,�쐼,4.5,��
2021/04/25,08:50,0.647,0.960,0.601,1.181,0.838,0.376,0.660,0.616,��,2.4,��
2021/04/25,09:00,0.647,0.960,0.600,1.181,0.836,0.376,0.660,0.616,�쐼,2.6,��
2021/04/25,09:10,0.644,0.957,0.603,1.179,0.839,0.376,0.661,0.617,�쐼,2.2,��
2021/04/25,09:20,0.644,0.957,0.602,1.182,0.837,0.376,0.661,0.617,���쐼,1.2,��
2021/04/25,09:30,0.645,0.957,0.603,1.182,0.837,0.378,0.660,0.616,���k��,3.4,��
2021/04/25,09:40,0.645,0.958,0.602,1.184,0.837,0.377,0.663,0.617,��,4.0,��
2021/04/25,09:50,0.646,0.958,0.599,1.182,0.838,0.375,0.662,0.615,��,2.6,��
2021/04/25,10:00,0.646,0.957,0.600,1.183,0.836,0.378,0.662,0.616,�쐼,3.4,��
2021/04/25,10:10,0.646,0.958,0.598,1.181,0.836,0.378,0.663,0.617,��,6.7,��
2021/04/25,10:20,0.646,0.958,0.600,1.181,0.836,0.376,0.663,0.615,��,5.5,��
2021/04/25,10:30,0.646,0.958,0.598,1.181,0.836,0.376,0.662,0.616,��,5.9,��
2021/04/25,10:40,0.648,0.958,0.599,1.183,0.838,0.376,0.662,0.616,���쐼,4.8,��
2021/04/25,10:50,0.646,0.959,0.599,1.180,0.839,0.377,0.663,0.616,��,6.1,��
2021/04/25,11:00,0.646,0.958,0.600,1.181,0.837,0.376,0.662,0.617,��,6.5,��
2021/04/25,11:10,0.647,0.958,0.598,1.181,0.837,0.378,0.662,0.615,��,6.7,��
2021/04/25,11:20,0.645,0.958,0.599,1.180,0.837,0.378,0.661,0.615,��,7.8,��
2021/04/25,11:30,0.646,0.957,0.598,1.179,0.837,0.376,0.662,0.617,��,7.1,��
2021/04/25,11:40,0.647,0.959,0.599,1.181,0.838,0.376,0.662,0.616,���k��,6.4,��
2021/04/25,11:50,0.646,0.960,0.599,1.183,0.836,0.377,0.662,0.614,���k��,5.9,��
2021/04/25,12:00,0.645,0.959,0.598,1.181,0.838,0.376,0.662,0.616,��,7.4,��
2021/04/25,12:10,0.646,0.960,0.600,1.183,0.837,0.377,0.661,0.615,��,5.4,��
2021/04/25,12:20,0.645,0.958,0.598,1.182,0.839,0.376,0.659,0.615,��,7.7,��
2021/04/25,12:30,0.645,0.961,0.600,1.182,0.839,0.376,0.660,0.617,��,7.8,��
2021/04/25,12:40,0.644,0.958,0.597,1.185,0.837,0.378,0.662,0.615,��,5.3,��
2021/04/25,12:50,0.646,0.961,0.598,1.183,0.837,0.376,0.662,0.616,���k��,4.4,��
2021/04/25,13:00,0.647,0.958,0.599,1.186,0.838,0.378,0.661,0.615,�k��,2.2,��
2021/04/25,13:10,0.646,0.958,0.598,1.186,0.839,0.376,0.661,0.618,���k��,2.5,��
2021/04/25,13:20,0.645,0.960,0.601,1.186,0.839,0.375,0.662,0.618,���k��,3.2,��
2021/04/25,13:30,0.645,0.961,0.601,1.186,0.840,0.377,0.660,0.618,���k��,2.5,��
2021/04/25,13:40,0.644,0.961,0.602,1.183,0.840,0.375,0.660,0.616,��,1.9,��
2021/04/25,13:50,0.645,0.961,0.601,1.184,0.841,0.375,0.661,0.616,�쓌,1.2,��
2021/04/25,14:00,0.646,0.965,0.601,1.184,0.841,0.377,0.661,0.617,���쓌,1.7,��
2021/04/25,14:10,0.647,0.959,0.603,1.183,0.837,0.377,0.660,0.618,���쓌,2.5,��
2021/04/25,14:20,0.646,0.961,0.600,1.185,0.839,0.377,0.662,0.618,��,2.2,��
2021/04/25,14:30,0.647,0.961,0.599,1.183,0.838,0.376,0.661,0.619,���쓌,2.3,��
2021/04/25,14:40,0.646,0.959,0.601,1.183,0.839,0.377,0.660,0.620,���k��,3.3,��
2021/04/25,14:50,0.649,0.961,0.601,1.184,0.838,0.378,0.659,0.618,��,3.0,��
2021/04/25,15:00,0.647,0.964,0.603,1.185,0.837,0.377,0.661,0.617,��,2.8,��
2021/04/25,15:10,0.649,0.965,0.601,1.185,0.839,0.378,0.661,0.617,���k��,3.7,��
2021/04/25,15:20,0.648,0.962,0.602,1.185,0.839,0.379,0.661,0.618,���k��,4.5,��
2021/04/25,15:30,0.647,0.962,0.601,1.185,0.839,0.377,0.661,0.617,�k��,3.7,��
2021/04/25,15:40,0.646,0.961,0.602,1.184,0.837,0.378,0.661,0.617,�k��,3.8,��
2021/04/25,15:50,0.644,0.962,0.600,1.185,0.838,0.377,0.659,0.617,�k�k��,6.6,��
2021/04/25,16:00,0.645,0.958,0.600,1.185,0.837,0.377,0.661,0.616,�k�k��,7.2,��
2021/04/25,16:10,0.644,0.961,0.597,1.184,0.837,0.376,0.660,0.616,�k��,5.2,��
2021/04/25,16:20,0.645,0.959,0.600,1.181,0.838,0.375,0.661,0.615,�k��,4.9,��
2021/04/25,16:30,0.644,0.960,0.598,1.183,0.836,0.376,0.662,0.615,�k�k��,5.5,��
2021/04/25,16:40,0.644,0.958,0.599,1.185,0.837,0.378,0.660,0.616,�k��,4.3,��
2021/04/25,16:50,0.644,0.963,0.599,1.183,0.838,0.376,0.660,0.615,�k�k��,2.9,��
2021/04/25,17:00,0.644,0.963,0.598,1.185,0.837,0.377,0.659,0.618,�k,1.7,��
2021/04/25,17:10,0.646,0.961,0.598,1.186,0.838,0.378,0.662,0.616,���k��,4.5,��
2021/04/25,17:20,0.645,0.962,0.599,1.183,0.840,0.376,0.661,0.617,��,3.3,��
2021/04/25,17:30,0.647,0.961,0.600,1.184,0.837,0.378,0.660,0.616,��,3.0,��
2021/04/25,17:40,0.645,0.962,0.598,1.184,0.837,0.376,0.660,0.617,�k��,5.0,��
2021/04/25,17:50,0.647,0.962,0.600,1.184,0.836,0.377,0.660,0.617,�k��,7.4,��
2021/04/25,18:00,0.646,0.961,0.599,1.183,0.839,0.377,0.660,0.617,�k�k��,8.5,��
2021/04/25,18:10,0.645,0.960,0.597,1.184,0.839,0.376,0.659,0.618,�k�k��,6.9,��
2021/04/25,18:20,0.645,0.962,0.598,1.183,0.841,0.375,0.658,0.618,�k�k��,8.1,��
2021/04/25,18:30,0.645,0.962,0.598,1.183,0.840,0.376,0.660,0.617,�k�k��,6.3,��
2021/04/25,18:40,0.646,0.961,0.598,1.184,0.841,0.376,0.658,0.619,�k�k��,7.2,��
2021/04/25,18:50,0.646,0.961,0.600,1.182,0.839,0.377,0.659,0.617,�k�k��,7.8,��
2021/04/25,19:00,0.645,0.964,0.599,1.184,0.839,0.375,0.659,0.618,�k�k��,7.5,��
2021/04/25,19:10,0.646,0.959,0.600,1.183,0.840,0.376,0.660,0.617,�k�k��,7.3,��
2021/04/25,19:20,0.644,0.960,0.598,1.183,0.840,0.376,0.659,0.618,�k�k��,8.1,��
2021/04/25,19:30,0.645,0.961,0.598,1.182,0.839,0.376,0.659,0.619,�k�k��,7.6,��
2021/04/25,19:40,0.645,0.958,0.597,1.181,0.838,0.377,0.661,0.617,�k�k��,9.4,��
2021/04/25,19:50,0.644,0.961,0.598,1.182,0.839,0.375,0.661,0.618,�k��,9.2,��
2021/04/25,20:00,0.645,0.960,0.598,1.184,0.840,0.376,0.660,0.619,�k��,10.3,��
2021/04/25,20:10,0.644,0.961,0.599,1.183,0.841,0.375,0.660,0.617,�k�k��,7.8,��
2021/04/25,20:20,0.644,0.961,0.599,1.184,0.838,0.375,0.660,0.617,�k�k��,5.7,��
2021/04/25,20:30,0.644,0.960,0.600,1.183,0.840,0.375,0.660,0.617,�k�k��,7.8,��
2021/04/25,20:40,0.644,0.961,0.598,1.183,0.837,0.376,0.660,0.619,�k�k��,10.7,��
2021/04/25,20:50,0.645,0.963,0.600,1.184,0.837,0.375,0.659,0.618,�k��,12.7,��
2021/04/25,21:00,0.643,0.962,0.599,1.183,0.841,0.374,0.658,0.617,�k��,9.2,��
2021/04/25,21:10,0.643,0.962,0.598,1.181,0.841,0.375,0.661,0.618,�k��,14.1,��
2021/04/25,21:20,0.644,0.962,0.599,1.184,0.839,0.375,0.659,0.618,�k��,8.6,��
2021/04/25,21:30,0.645,0.960,0.598,1.182,0.839,0.376,0.658,0.617,�k��,9.0,��
2021/04/25,21:40,0.644,0.961,0.598,1.186,0.839,0.377,0.660,0.617,�k�k��,8.5,��
2021/04/25,21:50,0.647,0.960,0.599,1.184,0.839,0.374,0.658,0.618,�k��,9.6,��
2021/04/25,22:00,0.644,0.958,0.598,1.184,0.838,0.374,0.658,0.618,�k�k��,8.3,��
2021/04/25,22:10,0.645,0.961,0.598,1.184,0.840,0.374,0.659,0.617,�k�k��,7.1,��
2021/04/25,22:20,0.644,0.963,0.599,1.183,0.838,0.375,0.659,0.619,�k,7.7,��
2021/04/25,22:30,0.644,0.962,0.599,1.184,0.838,0.375,0.659,0.618,�k�k��,7.3,��
2021/04/25,22:40,0.643,0.962,0.600,1.181,0.838,0.374,0.660,0.617,�k,5.9,��
2021/04/25,22:50,0.645,0.961,0.598,1.184,0.839,0.375,0.660,0.617,�k�k��,5.7,��
2021/04/25,23:00,0.645,0.961,0.599,1.186,0.838,0.375,0.661,0.618,�k�k��,8.5,��
2021/04/25,23:10,0.646,0.961,0.597,1.183,0.838,0.373,0.661,0.617,�k�k��,7.8,��
2021/04/25,23:20,0.642,0.962,0.598,1.181,0.840,0.375,0.659,0.617,�k��,6.6,��
2021/04/25,23:30,0.644,0.960,0.595,1.184,0.841,0.375,0.659,0.617,�k�k��,6.1,��
2021/04/25,23:40,0.643,0.963,0.597,1.184,0.836,0.375,0.659,0.617,�k�k��,5.6,��
2021/04/25,23:50,0.643,0.957,0.597,1.182,0.839,0.375,0.660,0.617,�k�k��,5.2,��
